{"data":{"norad_id":28649,"intl_designator":"2005-017A","name":"IRS-P5 (CARTOSAT-1)","alt_names":[],"object_type":"PAYLOAD","status":"ACTIVE","operator":null,"country":"IND","launch_date":"2005-05-05","launch_site_code":"SRILR","launch_vehicle":null,"mission":null,"orbit_class":"UNKNOWN","rcs_meters":4.6921,"size_class":null,"mass_kg":null,"dimensions":null,"purposes":["earth_obs"],"wikipedia_slug":null,"has_3d_model":false,"image_url":null,"decayed_at":null,"tle_current":{"epoch":"2026-05-25T01:25:46.633728Z","epoch_age_seconds":69810,"freshness":"FRESH","line1":"1 28649U 05017A   26145.05956752  .00001055  00000+0  11207-3 0  9993","line2":"2 28649  97.5320 169.1731 0002520 109.2974 250.8518 14.90978120140371","mean_motion":14.9097812,"eccentricity":0.000252,"inclination_deg":97.532,"raan_deg":169.1731,"arg_perigee_deg":109.2974,"mean_anomaly_deg":250.8518,"bstar":0.00011207,"rev_number":14037,"period_min":96.580894158259,"perigee_km":593.12714145945,"apogee_km":596.64154421624,"semimajor_km":6973.0213428378,"source":"CELESTRAK","updated_at":"2026-05-25T13:38:12.742971Z"}}}